SBI6216 UHPP-UHWW

Flight info

Callsign SBI6216
Flight time 3h 8m
Altitude 36000
Route UHPP SAMIK T577 UB P176 NAMUL P175 AKOLA T575 TD B355 BG G714 DAGES UHWW
Aircraft B738/M-SDE2E3FGHIRWXY/LB1

Departure

Time 2026-03-29 06:11
Airport Yelizovo Airport (UHPP)

Arrival

Time 2026-03-29 09:19
Airport Vladivostok International Airport (UHWW)
Time Latitude Longitude Altitude Speed Heading
2026-03-29 05:32 53.16832 158.42754 100 ft 0 kts 272°
2026-03-29 05:56 53.16832 158.42760 100 ft 2 kts 272°
2026-03-29 05:56 53.16831 158.42786 100 ft 2 kts 272°
2026-03-29 05:56 53.16830 158.42810 101 ft 2 kts 272°
2026-03-29 05:57 53.16829 158.42836 101 ft 2 kts 272°
2026-03-29 05:57 53.16829 158.42857 101 ft 0 kts 272°
2026-03-29 05:57 53.16828 158.42877 102 ft 2 kts 266°
2026-03-29 05:57 53.16830 158.42903 102 ft 2 kts 259°
2026-03-29 05:58 53.16834 158.42928 103 ft 2 kts 251°
2026-03-29 05:58 53.16840 158.42950 103 ft 2 kts 243°
2026-03-29 05:58 53.16846 158.42970 104 ft 0 kts 236°
2026-03-29 05:58 53.16849 158.42976 104 ft 0 kts 234°
2026-03-29 06:01 53.16846 158.42969 104 ft 2 kts 234°
2026-03-29 06:02 53.16834 158.42931 103 ft 5 kts 263°
2026-03-29 06:02 53.16865 158.42865 102 ft 9 kts 328°
2026-03-29 06:02 53.16929 158.42804 100 ft 11 kts 329°
2026-03-29 06:02 53.17009 158.42780 100 ft 9 kts 23°
2026-03-29 06:03 53.17048 158.42868 100 ft 12 kts 60°
2026-03-29 06:03 53.17106 158.43034 102 ft 19 kts 59°
2026-03-29 06:03 53.17187 158.43266 103 ft 24 kts 59°
2026-03-29 06:03 53.17272 158.43507 108 ft 23 kts 59°
2026-03-29 06:04 53.17357 158.43750 109 ft 24 kts 59°
2026-03-29 06:04 53.17439 158.43982 114 ft 18 kts 59°
2026-03-29 06:04 53.17493 158.44180 117 ft 18 kts 67°
2026-03-29 06:04 53.17533 158.44258 117 ft 5 kts 356°
2026-03-29 06:05 53.17588 158.44241 117 ft 11 kts 348°
2026-03-29 06:05 53.17692 158.44206 118 ft 18 kts 348°
2026-03-29 06:05 53.17843 158.44153 117 ft 23 kts 348°
2026-03-29 06:05 53.17986 158.44104 119 ft 19 kts 348°
2026-03-29 06:06 53.18119 158.44057 118 ft 19 kts 348°
2026-03-29 06:06 53.18177 158.44037 118 ft 0 kts 348°
2026-03-29 06:07 53.18180 158.44035 118 ft 2 kts 348°
2026-03-29 06:08 53.18207 158.44026 118 ft 6 kts 348°
2026-03-29 06:08 53.18265 158.44006 118 ft 10 kts 348°
2026-03-29 06:08 53.18333 158.44045 118 ft 11 kts 74°
2026-03-29 06:08 53.18280 158.44138 120 ft 13 kts 157°
2026-03-29 06:09 53.18261 158.44151 120 ft 0 kts 157°
2026-03-29 06:09 53.18256 158.44154 120 ft 4 kts 157°
2026-03-29 06:10 53.18097 158.44264 121 ft 56 kts 157°
2026-03-29 06:10 53.17534 158.44653 124 ft 116 kts 157°
2026-03-29 06:10 53.16645 158.45270 146 ft 161 kts 158°
2026-03-29 06:10 53.15581 158.46025 585 ft 169 kts 157°
2026-03-29 06:11 53.14512 158.46791 1188 ft 170 kts 158°
2026-03-29 06:11 53.13424 158.47527 1760 ft 171 kts 160°
2026-03-29 06:11 53.12285 158.48299 2009 ft 183 kts 159°
2026-03-29 06:11 53.11084 158.49126 2358 ft 189 kts 159°
2026-03-29 06:12 53.09840 158.49982 2721 ft 198 kts 159°
2026-03-29 06:12 53.08592 158.50844 3318 ft 196 kts 160°
2026-03-29 06:12 53.07336 158.51708 3845 ft 198 kts 160°
2026-03-29 06:12 53.06051 158.52593 4354 ft 200 kts 161°
2026-03-29 06:13 53.04779 158.53468 4835 ft 203 kts 161°
2026-03-29 06:13 53.03476 158.54367 5312 ft 205 kts 161°
2026-03-29 06:13 53.02163 158.55270 5784 ft 208 kts 161°
2026-03-29 06:13 53.00813 158.56201 6260 ft 211 kts 161°
2026-03-29 06:14 52.99414 158.56935 6699 ft 211 kts 181°
2026-03-29 06:14 52.98051 158.56337 7166 ft 204 kts 215°
2026-03-29 06:14 52.96921 158.54944 7677 ft 204 kts 225°
2026-03-29 06:14 52.96140 158.53033 8065 ft 206 kts 254°
2026-03-29 06:15 52.95988 158.50707 8638 ft 203 kts 272°
2026-03-29 06:15 52.96177 158.48351 8944 ft 216 kts 278°
2026-03-29 06:15 52.96416 158.45746 9097 ft 235 kts 277°
2026-03-29 06:15 52.96660 158.43013 9473 ft 247 kts 278°
2026-03-29 06:16 52.96926 158.40112 9853 ft 260 kts 278°
2026-03-29 06:16 52.97198 158.37135 10377 ft 267 kts 279°
2026-03-29 06:16 52.97491 158.33937 10445 ft 292 kts 279°
2026-03-29 06:16 52.97804 158.30502 10609 ft 311 kts 279°
2026-03-29 06:17 52.98145 158.26762 10698 ft 332 kts 279°
2026-03-29 06:17 52.98490 158.22945 11194 ft 339 kts 279°
2026-03-29 06:17 52.98846 158.19022 11666 ft 346 kts 279°
2026-03-29 06:17 52.99197 158.15122 12332 ft 347 kts 279°
2026-03-29 06:18 52.99558 158.11110 12958 ft 350 kts 279°
2026-03-29 06:18 52.99918 158.07088 13618 ft 351 kts 279°
2026-03-29 06:18 53.00273 158.03099 14266 ft 353 kts 279°
2026-03-29 06:18 53.00631 157.99056 14909 ft 355 kts 279°
2026-03-29 06:19 53.00985 157.95053 15536 ft 356 kts 279°
2026-03-29 06:19 53.01349 157.90924 16154 ft 358 kts 279°
2026-03-29 06:19 53.01706 157.86859 16750 ft 360 kts 279°
2026-03-29 06:19 53.02067 157.82719 17334 ft 362 kts 279°
2026-03-29 06:20 53.02423 157.78630 17891 ft 363 kts 279°
2026-03-29 06:20 53.02785 157.74455 18426 ft 366 kts 279°
2026-03-29 06:20 53.03148 157.70261 18986 ft 366 kts 279°
2026-03-29 06:20 53.03506 157.66058 19514 ft 368 kts 278°
2026-03-29 06:21 53.03550 157.61838 19964 ft 373 kts 267°
2026-03-29 06:21 53.03205 157.57579 20537 ft 374 kts 263°
2026-03-29 06:21 53.02615 157.53294 20908 ft 380 kts 258°
2026-03-29 06:21 53.01929 157.49100 21393 ft 381 kts 259°
2026-03-29 06:22 53.01260 157.44812 21778 ft 384 kts 259°
2026-03-29 06:22 53.00592 157.40489 22212 ft 385 kts 259°
2026-03-29 06:22 52.99916 157.36224 22612 ft 388 kts 259°
2026-03-29 06:22 52.99213 157.31851 22987 ft 390 kts 258°
2026-03-29 06:23 52.98511 157.27501 23372 ft 392 kts 258°
2026-03-29 06:23 52.97810 157.23167 23744 ft 394 kts 258°
2026-03-29 06:23 52.97092 157.18745 24092 ft 397 kts 258°
2026-03-29 06:23 52.96368 157.14311 24417 ft 399 kts 258°
2026-03-29 06:24 52.95639 157.09863 24734 ft 402 kts 257°
2026-03-29 06:24 52.94897 157.05353 25063 ft 404 kts 257°
2026-03-29 06:24 52.94160 157.00884 25368 ft 406 kts 257°
2026-03-29 06:24 52.93409 156.96343 25655 ft 409 kts 257°
2026-03-29 06:25 52.92662 156.91836 25965 ft 410 kts 257°
2026-03-29 06:25 52.91904 156.87282 26274 ft 411 kts 257°
2026-03-29 06:25 52.91136 156.82677 26567 ft 413 kts 257°
2026-03-29 06:25 52.90373 156.78116 26850 ft 414 kts 257°
2026-03-29 06:26 52.89602 156.73518 27116 ft 416 kts 257°
2026-03-29 06:26 52.88044 156.64265 27648 ft 418 kts 257°
2026-03-29 06:26 52.87256 156.59605 27890 ft 420 kts 257°
2026-03-29 06:27 52.86476 156.55009 28354 ft 415 kts 257°
2026-03-29 06:27 52.85694 156.50415 28740 ft 413 kts 257°
2026-03-29 06:27 52.84924 156.45895 29040 ft 413 kts 257°
2026-03-29 06:27 52.84141 156.41316 29429 ft 410 kts 257°
2026-03-29 06:28 52.83365 156.36784 29745 ft 409 kts 257°
2026-03-29 06:28 52.82591 156.32280 30038 ft 408 kts 256°
2026-03-29 06:28 52.81833 156.27830 30392 ft 406 kts 257°
2026-03-29 06:28 52.81255 156.23235 30681 ft 404 kts 262°
2026-03-29 06:29 52.80866 156.18671 30998 ft 403 kts 263°
2026-03-29 06:29 52.80465 156.14131 31303 ft 401 kts 262°
2026-03-29 06:29 52.80019 156.09546 31575 ft 401 kts 262°
2026-03-29 06:29 52.79573 156.04988 31875 ft 399 kts 262°
2026-03-29 06:30 52.79140 156.00497 32155 ft 398 kts 262°
2026-03-29 06:30 52.78704 155.95960 32424 ft 398 kts 262°
2026-03-29 06:30 52.78273 155.91501 32696 ft 396 kts 262°
2026-03-29 06:30 52.77832 155.86989 32953 ft 395 kts 262°
2026-03-29 06:31 52.77398 155.82550 33202 ft 395 kts 262°
2026-03-29 06:31 52.76957 155.78055 33451 ft 394 kts 262°
2026-03-29 06:31 52.76518 155.73624 33695 ft 393 kts 262°
2026-03-29 06:31 52.76075 155.69200 33923 ft 392 kts 262°
2026-03-29 06:32 52.75631 155.64777 34140 ft 391 kts 262°
2026-03-29 06:32 52.75181 155.60315 34341 ft 391 kts 262°
2026-03-29 06:32 52.74738 155.55924 34535 ft 391 kts 262°
2026-03-29 06:33 52.73841 155.47084 34909 ft 390 kts 262°
2026-03-29 06:33 52.73394 155.42715 35098 ft 390 kts 262°
2026-03-29 06:33 52.72940 155.38292 35259 ft 390 kts 262°
2026-03-29 06:33 52.72486 155.33876 35437 ft 389 kts 261°
2026-03-29 06:34 52.72034 155.29507 35620 ft 389 kts 261°
2026-03-29 06:34 52.71580 155.25131 35796 ft 389 kts 261°
2026-03-29 06:34 52.71124 155.20746 35972 ft 389 kts 261°
2026-03-29 06:34 52.70666 155.16367 36097 ft 390 kts 261°
2026-03-29 06:35 52.69735 155.07500 36100 ft 391 kts 261°
2026-03-29 06:35 52.68807 154.98738 36101 ft 388 kts 261°
2026-03-29 06:36 52.67871 154.89970 36101 ft 388 kts 261°
2026-03-29 06:36 52.66937 154.81276 36101 ft 388 kts 261°
2026-03-29 06:37 52.65985 154.72476 36101 ft 389 kts 261°
2026-03-29 06:37 52.65030 154.63722 36101 ft 388 kts 261°
2026-03-29 06:38 52.63956 154.55019 36100 ft 389 kts 257°
2026-03-29 06:38 52.61924 154.46771 36102 ft 393 kts 246°
2026-03-29 06:39 52.59526 154.38707 36101 ft 392 kts 249°
2026-03-29 06:39 52.57197 154.30582 36101 ft 393 kts 247°
2026-03-29 06:40 52.54813 154.22530 36101 ft 393 kts 247°
2026-03-29 06:40 52.52425 154.14482 36101 ft 393 kts 247°
2026-03-29 06:41 52.50024 154.06456 36101 ft 393 kts 247°
2026-03-29 06:41 52.47597 153.98383 36101 ft 393 kts 247°
2026-03-29 06:42 52.45190 153.90407 36101 ft 393 kts 247°
2026-03-29 06:42 52.42750 153.82352 36101 ft 393 kts 247°
2026-03-29 06:43 52.40328 153.74382 36101 ft 393 kts 247°
2026-03-29 06:43 52.37878 153.66351 36101 ft 393 kts 247°
2026-03-29 06:44 52.35447 153.58406 36101 ft 393 kts 247°
2026-03-29 06:44 52.32991 153.50407 36101 ft 393 kts 247°
2026-03-29 06:45 52.30543 153.42462 36101 ft 393 kts 247°
2026-03-29 06:45 52.28090 153.34526 36101 ft 393 kts 246°
2026-03-29 06:46 52.25624 153.26573 36101 ft 394 kts 246°
2026-03-29 06:46 52.23149 153.18620 36101 ft 393 kts 246°
2026-03-29 06:47 52.20661 153.10651 36101 ft 393 kts 246°
2026-03-29 06:47 52.18185 153.02743 36101 ft 394 kts 246°
2026-03-29 06:48 52.15685 152.94788 36101 ft 394 kts 246°
2026-03-29 06:48 52.13186 152.86859 36101 ft 395 kts 246°
2026-03-29 06:49 52.10685 152.78952 36101 ft 395 kts 246°
2026-03-29 06:49 52.08172 152.71033 36101 ft 395 kts 246°
2026-03-29 06:50 52.05637 152.63068 36101 ft 395 kts 246°
2026-03-29 06:50 52.03122 152.55193 36101 ft 395 kts 246°
2026-03-29 06:51 52.00594 152.47304 36101 ft 395 kts 246°
2026-03-29 06:51 51.98062 152.39426 36101 ft 395 kts 246°
2026-03-29 06:52 51.95505 152.31494 36101 ft 395 kts 245°
2026-03-29 06:52 51.92963 152.23636 36101 ft 395 kts 245°
2026-03-29 06:53 51.90413 152.15781 36101 ft 395 kts 245°
2026-03-29 06:53 51.87852 152.07915 36101 ft 395 kts 245°
2026-03-29 06:54 51.85278 152.00035 36101 ft 395 kts 245°
2026-03-29 06:54 51.82719 151.92227 36101 ft 395 kts 245°
2026-03-29 06:55 51.80151 151.84413 36101 ft 395 kts 245°
2026-03-29 06:55 51.77571 151.76587 36101 ft 395 kts 245°
2026-03-29 06:56 51.74983 151.68764 36101 ft 395 kts 245°
2026-03-29 06:56 51.72392 151.60956 36101 ft 395 kts 245°
2026-03-29 06:57 51.69805 151.53183 36101 ft 395 kts 245°
2026-03-29 06:57 51.67193 151.45360 36101 ft 395 kts 245°
2026-03-29 06:58 51.64587 151.37584 36101 ft 395 kts 245°
2026-03-29 06:58 51.61984 151.29837 36101 ft 396 kts 245°
2026-03-29 06:59 51.59362 151.22058 36101 ft 396 kts 245°
2026-03-29 06:59 51.56737 151.14293 36101 ft 396 kts 245°
2026-03-29 07:00 51.54110 151.06547 36101 ft 396 kts 245°
2026-03-29 07:00 51.51473 150.98796 36101 ft 397 kts 245°
2026-03-29 07:01 51.48837 150.91071 36101 ft 397 kts 245°
2026-03-29 07:01 51.46167 150.83272 36101 ft 397 kts 245°
2026-03-29 07:02 51.43510 150.75536 36101 ft 397 kts 245°
2026-03-29 07:02 51.40856 150.67831 36101 ft 397 kts 245°
2026-03-29 07:03 51.38184 150.60097 36101 ft 397 kts 245°
2026-03-29 07:03 51.35511 150.52383 36101 ft 397 kts 245°
2026-03-29 07:04 51.32836 150.44690 36101 ft 397 kts 245°
2026-03-29 07:04 51.30166 150.37033 36101 ft 397 kts 245°
2026-03-29 07:05 51.27472 150.29332 36101 ft 397 kts 244°
2026-03-29 07:05 51.24775 150.21643 36101 ft 397 kts 244°
2026-03-29 07:06 51.22073 150.13968 36101 ft 397 kts 244°
2026-03-29 07:06 51.19365 150.06296 36101 ft 397 kts 244°
2026-03-29 07:07 51.16960 149.98407 36102 ft 393 kts 253°
2026-03-29 07:07 51.15199 149.90179 36101 ft 393 kts 253°
2026-03-29 07:08 51.12563 149.77872 36101 ft 393 kts 253°
2026-03-29 07:09 51.10810 149.69597 36101 ft 393 kts 253°
2026-03-29 07:09 51.09071 149.61404 36101 ft 393 kts 254°
2026-03-29 07:10 51.07320 149.53168 36101 ft 393 kts 254°
2026-03-29 07:10 51.05569 149.44959 36101 ft 393 kts 254°
2026-03-29 07:11 51.03816 149.36769 36101 ft 393 kts 254°
2026-03-29 07:11 51.02040 149.28502 36101 ft 394 kts 253°
2026-03-29 07:12 51.00264 149.20268 36101 ft 396 kts 253°
2026-03-29 07:12 50.98470 149.11987 36101 ft 397 kts 253°
2026-03-29 07:13 50.96667 149.03694 36101 ft 398 kts 253°
2026-03-29 07:13 50.94868 148.95453 36101 ft 399 kts 253°
2026-03-29 07:14 50.93052 148.87170 36101 ft 398 kts 253°
2026-03-29 07:14 50.91230 148.78888 36101 ft 396 kts 253°
2026-03-29 07:15 50.89410 148.70648 36101 ft 396 kts 253°
2026-03-29 07:15 50.87589 148.62442 36101 ft 398 kts 253°
2026-03-29 07:16 50.85741 148.54143 36100 ft 398 kts 253°
2026-03-29 07:16 50.83900 148.45911 36101 ft 398 kts 253°
2026-03-29 07:17 50.82053 148.37683 36101 ft 397 kts 253°
2026-03-29 07:17 50.80190 148.29417 36101 ft 398 kts 252°
2026-03-29 07:18 50.78326 148.21178 36101 ft 398 kts 252°
2026-03-29 07:18 50.76461 148.12962 36101 ft 398 kts 252°
2026-03-29 07:19 50.74593 148.04773 36101 ft 398 kts 252°
2026-03-29 07:19 50.72712 147.96552 36101 ft 398 kts 252°
2026-03-29 07:20 50.70830 147.88362 36101 ft 398 kts 252°
2026-03-29 07:20 50.68972 147.80309 36101 ft 398 kts 252°
2026-03-29 07:21 50.67070 147.72096 36101 ft 398 kts 252°
2026-03-29 07:21 50.65178 147.63951 36101 ft 398 kts 252°
2026-03-29 07:22 50.63269 147.55774 36101 ft 398 kts 252°
2026-03-29 07:22 50.61356 147.47603 36101 ft 398 kts 252°
2026-03-29 07:23 50.59432 147.39420 36101 ft 398 kts 252°
2026-03-29 07:23 50.57516 147.31300 36101 ft 398 kts 252°
2026-03-29 07:24 50.55578 147.23119 36101 ft 403 kts 252°
2026-03-29 07:24 50.53596 147.14780 36101 ft 411 kts 252°
2026-03-29 07:25 50.51566 147.06273 36100 ft 416 kts 252°
2026-03-29 07:25 50.49523 146.97755 36099 ft 413 kts 251°
2026-03-29 07:26 50.47513 146.89403 36101 ft 407 kts 251°
2026-03-29 07:26 50.45513 146.81120 36101 ft 405 kts 251°
2026-03-29 07:27 50.43520 146.72900 36101 ft 407 kts 251°
2026-03-29 07:27 50.41501 146.64598 36101 ft 407 kts 251°
2026-03-29 07:28 50.39474 146.56302 36101 ft 407 kts 251°
2026-03-29 07:28 50.37453 146.48061 36101 ft 407 kts 251°
2026-03-29 07:29 50.35419 146.39796 36101 ft 407 kts 251°
2026-03-29 07:29 50.33383 146.31552 36101 ft 407 kts 250°
2026-03-29 07:30 50.31340 146.23312 36101 ft 407 kts 250°
2026-03-29 07:30 50.29290 146.15073 36101 ft 407 kts 250°
2026-03-29 07:31 50.27223 146.06801 36101 ft 407 kts 250°
2026-03-29 07:31 50.25173 145.98624 36101 ft 407 kts 250°
2026-03-29 07:32 50.23102 145.90396 36101 ft 407 kts 250°
2026-03-29 07:32 50.21020 145.82150 36129 ft 407 kts 251°
2026-03-29 07:33 50.18951 145.73936 36128 ft 408 kts 251°
2026-03-29 07:33 50.16847 145.65706 36128 ft 408 kts 251°
2026-03-29 07:34 50.14736 145.57443 36128 ft 408 kts 251°
2026-03-29 07:34 50.12640 145.49269 36128 ft 408 kts 251°
2026-03-29 07:35 50.10525 145.41048 36128 ft 408 kts 251°
2026-03-29 07:35 50.08425 145.32915 36127 ft 408 kts 250°
2026-03-29 07:36 50.06291 145.24681 36128 ft 408 kts 250°
2026-03-29 07:36 50.04164 145.16501 36128 ft 408 kts 250°
2026-03-29 07:37 50.02040 145.08359 36128 ft 409 kts 249°
2026-03-29 07:37 49.99878 145.00104 36128 ft 411 kts 249°
2026-03-29 07:38 49.97717 144.91882 36128 ft 412 kts 249°
2026-03-29 07:38 49.95552 144.83675 36128 ft 412 kts 249°
2026-03-29 07:39 49.93363 144.75407 36128 ft 411 kts 249°
2026-03-29 07:39 49.91190 144.67226 36128 ft 411 kts 249°
2026-03-29 07:40 49.89002 144.59021 36128 ft 411 kts 249°
2026-03-29 07:40 49.86815 144.50848 36128 ft 412 kts 249°
2026-03-29 07:41 49.84602 144.42607 36128 ft 411 kts 249°
2026-03-29 07:41 49.82426 144.34537 36128 ft 411 kts 248°
2026-03-29 07:42 49.80199 144.26303 36128 ft 412 kts 248°
2026-03-29 07:42 49.77988 144.18158 36128 ft 412 kts 248°
2026-03-29 07:43 49.75764 144.09994 36128 ft 412 kts 248°
2026-03-29 07:43 49.73526 144.01804 36128 ft 411 kts 248°
2026-03-29 07:44 49.71290 143.93657 36128 ft 412 kts 248°
2026-03-29 07:44 49.69050 143.85519 36128 ft 412 kts 248°
2026-03-29 07:45 49.66812 143.77416 36128 ft 411 kts 248°
2026-03-29 07:45 49.64556 143.69278 36128 ft 411 kts 248°
2026-03-29 07:46 49.62304 143.61180 36128 ft 411 kts 248°
2026-03-29 07:46 49.60032 143.53043 36128 ft 412 kts 248°
2026-03-29 07:47 49.57764 143.44942 36128 ft 412 kts 248°
2026-03-29 07:47 49.55497 143.36876 36128 ft 412 kts 248°
2026-03-29 07:48 49.53209 143.28761 36128 ft 412 kts 247°
2026-03-29 07:48 49.50920 143.20668 36128 ft 412 kts 247°
2026-03-29 07:49 49.48626 143.12590 36128 ft 412 kts 247°
2026-03-29 07:49 49.46337 143.04558 36128 ft 412 kts 247°
2026-03-29 07:50 49.44024 142.96463 36128 ft 413 kts 247°
2026-03-29 07:50 49.41700 142.88361 36128 ft 416 kts 247°
2026-03-29 07:51 49.39341 142.80176 36128 ft 418 kts 246°
2026-03-29 07:51 49.36963 142.72025 36127 ft 419 kts 247°
2026-03-29 07:52 49.34604 142.63896 36128 ft 419 kts 247°
2026-03-29 07:52 49.32262 142.55730 36129 ft 418 kts 247°
2026-03-29 07:53 49.29922 142.47589 36127 ft 418 kts 247°
2026-03-29 07:53 49.27535 142.39545 36129 ft 418 kts 246°
2026-03-29 07:54 49.25169 142.31483 36128 ft 419 kts 246°
2026-03-29 07:54 49.22791 142.23338 36128 ft 419 kts 246°
2026-03-29 07:55 49.20359 142.15184 36128 ft 418 kts 246°
2026-03-29 07:55 49.17943 142.07111 36129 ft 419 kts 246°
2026-03-29 07:56 49.15543 141.99023 36129 ft 418 kts 246°
2026-03-29 07:56 49.13157 141.90922 36127 ft 418 kts 246°
2026-03-29 07:57 49.10786 141.82909 36129 ft 419 kts 246°
2026-03-29 07:57 49.08335 141.74829 36128 ft 420 kts 246°
2026-03-29 07:58 49.05894 141.66730 36128 ft 420 kts 246°
2026-03-29 07:58 49.03465 141.58643 36128 ft 421 kts 246°
2026-03-29 07:59 49.00999 141.50560 36129 ft 422 kts 246°
2026-03-29 07:59 48.98539 141.42511 36128 ft 421 kts 246°
2026-03-29 08:00 48.96106 141.34425 36129 ft 422 kts 245°
2026-03-29 08:00 48.93630 141.26302 36128 ft 423 kts 245°
2026-03-29 08:01 48.91148 141.18243 36128 ft 423 kts 245°
2026-03-29 08:01 48.88660 141.10138 36128 ft 424 kts 245°
2026-03-29 08:02 48.86182 141.02046 36127 ft 424 kts 245°
2026-03-29 08:02 48.83673 140.93881 36128 ft 425 kts 245°
2026-03-29 08:03 48.81160 140.85797 36128 ft 426 kts 245°
2026-03-29 08:03 48.78629 140.77653 36128 ft 426 kts 245°
2026-03-29 08:04 48.76102 140.69550 36128 ft 426 kts 245°
2026-03-29 08:04 48.73566 140.61444 36128 ft 426 kts 245°
2026-03-29 08:05 48.71038 140.53391 36128 ft 426 kts 245°
2026-03-29 08:05 48.68501 140.45322 36128 ft 426 kts 245°
2026-03-29 08:06 48.65961 140.37236 36128 ft 426 kts 245°
2026-03-29 08:06 48.63406 140.29141 36128 ft 426 kts 244°
2026-03-29 08:07 48.60838 140.21098 36128 ft 426 kts 243°
2026-03-29 08:07 48.57652 140.13539 36128 ft 427 kts 235°
2026-03-29 08:08 48.54255 140.06273 36128 ft 426 kts 236°
2026-03-29 08:08 48.50859 139.98894 36128 ft 427 kts 236°
2026-03-29 08:09 48.47438 139.91585 36128 ft 427 kts 236°
2026-03-29 08:09 48.44026 139.84296 36128 ft 427 kts 236°
2026-03-29 08:10 48.40616 139.76999 36128 ft 427 kts 236°
2026-03-29 08:10 48.37207 139.69734 36128 ft 427 kts 236°
2026-03-29 08:11 48.32055 139.58803 36128 ft 426 kts 236°
2026-03-29 08:11 48.28641 139.51584 36128 ft 427 kts 236°
2026-03-29 08:12 48.25200 139.44328 36128 ft 427 kts 236°
2026-03-29 08:12 48.21742 139.37056 36128 ft 427 kts 236°
2026-03-29 08:13 48.18320 139.29880 36128 ft 427 kts 235°
2026-03-29 08:13 48.14872 139.22669 36128 ft 427 kts 235°
2026-03-29 08:14 48.11392 139.15410 36108 ft 427 kts 235°
2026-03-29 08:14 48.07933 139.08214 36067 ft 428 kts 235°
2026-03-29 08:15 48.04449 139.00995 36027 ft 429 kts 235°
2026-03-29 08:15 48.00952 138.93805 35993 ft 430 kts 235°
2026-03-29 08:16 47.97422 138.86559 36004 ft 430 kts 235°
2026-03-29 08:16 47.93916 138.79385 36009 ft 430 kts 235°
2026-03-29 08:17 47.90383 138.72177 35997 ft 430 kts 235°
2026-03-29 08:17 47.86860 138.65008 35993 ft 430 kts 235°
2026-03-29 08:18 47.83320 138.57822 35993 ft 430 kts 235°
2026-03-29 08:18 47.79798 138.50696 35993 ft 430 kts 235°
2026-03-29 08:19 47.76240 138.43509 35993 ft 430 kts 235°
2026-03-29 08:19 47.72722 138.36410 35993 ft 430 kts 235°
2026-03-29 08:20 47.69183 138.29291 35993 ft 430 kts 234°
2026-03-29 08:20 47.65626 138.22154 35993 ft 430 kts 234°
2026-03-29 08:21 47.62075 138.15047 35993 ft 430 kts 234°
2026-03-29 08:21 47.58506 138.07922 35993 ft 430 kts 234°
2026-03-29 08:22 47.54945 138.00832 35993 ft 430 kts 234°
2026-03-29 08:22 47.51378 137.93749 35993 ft 430 kts 234°
2026-03-29 08:23 47.47816 137.86693 35993 ft 430 kts 234°
2026-03-29 08:23 47.44239 137.79628 35993 ft 430 kts 234°
2026-03-29 08:24 47.40654 137.72563 35993 ft 430 kts 234°
2026-03-29 08:24 47.37053 137.65488 35993 ft 430 kts 234°
2026-03-29 08:25 47.33460 137.58462 35993 ft 430 kts 234°
2026-03-29 08:25 47.29868 137.51471 35993 ft 430 kts 234°
2026-03-29 08:26 47.26251 137.44443 35993 ft 430 kts 234°
2026-03-29 08:26 47.22628 137.37421 35993 ft 430 kts 234°
2026-03-29 08:27 47.19014 137.30437 35993 ft 430 kts 234°
2026-03-29 08:27 47.15408 137.23483 35993 ft 430 kts 234°
2026-03-29 08:28 47.11775 137.16496 35993 ft 430 kts 234°
2026-03-29 08:28 47.08154 137.09549 35993 ft 430 kts 234°
2026-03-29 08:29 47.04510 137.02574 35993 ft 430 kts 234°
2026-03-29 08:29 47.00879 136.95642 35993 ft 431 kts 234°
2026-03-29 08:30 46.97230 136.88686 35993 ft 432 kts 234°
2026-03-29 08:30 46.93579 136.81740 35993 ft 431 kts 235°
2026-03-29 08:31 46.89912 136.74782 35993 ft 431 kts 235°
2026-03-29 08:31 46.86268 136.67926 35993 ft 429 kts 235°
2026-03-29 08:32 46.82607 136.61063 35993 ft 428 kts 235°
2026-03-29 08:32 46.78940 136.54166 35984 ft 430 kts 235°
2026-03-29 08:33 46.75269 136.47301 35965 ft 429 kts 235°
2026-03-29 08:33 46.71640 136.40465 35966 ft 429 kts 236°
2026-03-29 08:34 46.67992 136.33556 35965 ft 429 kts 235°
2026-03-29 08:34 46.64321 136.26712 35966 ft 429 kts 234°
2026-03-29 08:35 46.60654 136.19888 35967 ft 429 kts 235°
2026-03-29 08:35 46.57011 136.13075 35966 ft 429 kts 235°
2026-03-29 08:36 46.53334 136.06221 35965 ft 428 kts 235°
2026-03-29 08:36 46.49685 135.99440 35966 ft 429 kts 235°
2026-03-29 08:37 46.46012 135.92639 35966 ft 430 kts 234°
2026-03-29 08:37 46.42321 135.85843 35966 ft 429 kts 234°
2026-03-29 08:38 46.38633 135.79099 35966 ft 429 kts 234°
2026-03-29 08:38 46.34917 135.72310 35966 ft 429 kts 235°
2026-03-29 08:39 46.31388 135.65457 35966 ft 428 kts 237°
2026-03-29 08:39 46.27821 135.58519 35965 ft 429 kts 236°
2026-03-29 08:40 46.24250 135.51663 35965 ft 428 kts 236°
2026-03-29 08:40 46.20692 135.44786 35965 ft 429 kts 236°
2026-03-29 08:41 46.17099 135.37897 35966 ft 429 kts 236°
2026-03-29 08:41 46.13514 135.31091 35965 ft 428 kts 236°
2026-03-29 08:42 46.09895 135.24214 35967 ft 429 kts 236°
2026-03-29 08:42 46.06316 135.17429 35966 ft 429 kts 235°
2026-03-29 08:43 46.02714 135.10582 35966 ft 428 kts 236°
2026-03-29 08:43 45.99133 135.03722 35965 ft 429 kts 236°
2026-03-29 08:44 45.95538 134.96883 35966 ft 430 kts 236°
2026-03-29 08:44 45.91876 134.90126 35964 ft 433 kts 232°
2026-03-29 08:45 45.87313 134.84480 35966 ft 443 kts 217°
2026-03-29 08:45 45.81912 134.80148 35966 ft 445 kts 214°
2026-03-29 08:46 45.76599 134.75768 35966 ft 443 kts 215°
2026-03-29 08:46 45.71272 134.71393 35965 ft 443 kts 215°
2026-03-29 08:47 45.65911 134.67033 35966 ft 445 kts 215°
2026-03-29 08:47 45.60659 134.62778 35965 ft 444 kts 214°
2026-03-29 08:48 45.55270 134.58450 35970 ft 444 kts 215°
2026-03-29 08:48 45.49889 134.54137 35984 ft 444 kts 215°
2026-03-29 08:49 45.44510 134.49846 36007 ft 444 kts 215°
2026-03-29 08:49 45.39105 134.45573 36031 ft 444 kts 214°
2026-03-29 08:50 45.33754 134.41365 35816 ft 436 kts 214°
2026-03-29 08:50 45.31128 134.39304 35564 ft 425 kts 215°
2026-03-29 08:50 45.28586 134.37300 35316 ft 418 kts 215°
2026-03-29 08:51 45.26073 134.35298 35074 ft 418 kts 215°
2026-03-29 08:51 45.23552 134.33278 34826 ft 420 kts 214°
2026-03-29 08:51 45.21012 134.31256 34581 ft 424 kts 214°
2026-03-29 08:51 45.18439 134.29221 34332 ft 425 kts 214°
2026-03-29 08:52 45.15854 134.27193 34083 ft 426 kts 214°
2026-03-29 08:52 45.13260 134.25176 33831 ft 426 kts 214°
2026-03-29 08:52 45.10673 134.23151 33581 ft 427 kts 214°
2026-03-29 08:52 45.08083 134.21104 33330 ft 426 kts 214°
2026-03-29 08:53 45.05469 134.19040 33075 ft 425 kts 215°
2026-03-29 08:53 45.02901 134.17018 32826 ft 425 kts 215°
2026-03-29 08:53 45.00289 134.14972 32573 ft 425 kts 215°
2026-03-29 08:53 44.97728 134.12973 32324 ft 424 kts 215°
2026-03-29 08:54 44.95153 134.10971 32075 ft 424 kts 215°
2026-03-29 08:54 44.92561 134.08962 31822 ft 425 kts 215°
2026-03-29 08:54 44.89989 134.06959 31573 ft 425 kts 215°
2026-03-29 08:54 44.87443 134.04970 31325 ft 425 kts 215°
2026-03-29 08:55 44.84885 134.02963 31075 ft 423 kts 216°
2026-03-29 08:55 44.82413 134.00775 30820 ft 417 kts 221°
2026-03-29 08:55 44.80121 133.98332 30572 ft 413 kts 224°
2026-03-29 08:55 44.77864 133.95868 30321 ft 412 kts 223°
2026-03-29 08:56 44.75575 133.93439 30070 ft 411 kts 223°
2026-03-29 08:56 44.73299 133.91049 29819 ft 409 kts 223°
2026-03-29 08:56 44.71019 133.88638 29568 ft 408 kts 223°
2026-03-29 08:56 44.68760 133.86243 29318 ft 407 kts 223°
2026-03-29 08:57 44.66518 133.83870 29068 ft 405 kts 223°
2026-03-29 08:57 44.64272 133.81496 28817 ft 404 kts 223°
2026-03-29 08:57 44.62017 133.79114 28565 ft 403 kts 223°
2026-03-29 08:57 44.59806 133.76779 28317 ft 402 kts 223°
2026-03-29 08:58 44.57565 133.74414 28064 ft 400 kts 223°
2026-03-29 08:58 44.55356 133.72087 27815 ft 399 kts 223°
2026-03-29 08:58 44.53154 133.69769 27565 ft 397 kts 223°
2026-03-29 08:58 44.50943 133.67442 27315 ft 396 kts 223°
2026-03-29 08:59 44.48729 133.65117 27062 ft 395 kts 223°
2026-03-29 08:59 44.46560 133.62839 26814 ft 394 kts 223°
2026-03-29 08:59 44.44352 133.60522 26561 ft 392 kts 223°
2026-03-29 08:59 44.42188 133.58255 26312 ft 391 kts 222°
2026-03-29 09:00 44.39989 133.55953 26058 ft 390 kts 222°
2026-03-29 09:00 44.37828 133.53691 25808 ft 389 kts 222°
2026-03-29 09:00 44.35681 133.51448 25559 ft 387 kts 222°
2026-03-29 09:00 44.33533 133.49205 25309 ft 387 kts 222°
2026-03-29 09:01 44.31382 133.46962 25059 ft 385 kts 222°
2026-03-29 09:01 44.29268 133.44757 24811 ft 384 kts 222°
2026-03-29 09:01 44.27133 133.42535 24561 ft 382 kts 222°
2026-03-29 09:01 44.25024 133.40341 24312 ft 381 kts 222°
2026-03-29 09:02 44.22904 133.38138 24062 ft 380 kts 222°
2026-03-29 09:02 44.20793 133.35947 23812 ft 379 kts 222°
2026-03-29 09:02 44.18684 133.33758 23557 ft 378 kts 221°
2026-03-29 09:02 44.16613 133.31615 23063 ft 372 kts 221°
2026-03-29 09:03 44.14553 133.29485 22491 ft 368 kts 221°
2026-03-29 09:03 44.12527 133.27388 21905 ft 365 kts 221°
2026-03-29 09:03 44.10507 133.25299 21312 ft 362 kts 221°
2026-03-29 09:03 44.08493 133.23218 20720 ft 359 kts 221°
2026-03-29 09:04 44.06528 133.21191 20137 ft 356 kts 221°
2026-03-29 09:04 44.04543 133.19144 19544 ft 353 kts 221°
2026-03-29 09:04 44.02588 133.17131 18961 ft 351 kts 221°
2026-03-29 09:04 44.00652 133.15138 18380 ft 349 kts 221°
2026-03-29 09:05 43.98699 133.13129 17793 ft 346 kts 221°
2026-03-29 09:05 43.96787 133.11163 17156 ft 348 kts 220°
2026-03-29 09:05 43.94833 133.09155 16396 ft 350 kts 220°
2026-03-29 09:05 43.92880 133.07152 15649 ft 352 kts 220°
2026-03-29 09:06 43.90925 133.05147 14902 ft 353 kts 220°
2026-03-29 09:06 43.88962 133.03137 14154 ft 354 kts 220°
2026-03-29 09:06 43.86991 133.01121 13404 ft 355 kts 220°
2026-03-29 09:06 43.85012 132.99098 12719 ft 353 kts 219°
2026-03-29 09:07 43.83083 132.97131 12449 ft 339 kts 220°
2026-03-29 09:07 43.81242 132.95256 12190 ft 326 kts 220°
2026-03-29 09:07 43.79428 132.93404 11843 ft 324 kts 220°
2026-03-29 09:07 43.77622 132.91560 11317 ft 324 kts 219°
2026-03-29 09:08 43.75834 132.89740 10878 ft 318 kts 219°
2026-03-29 09:08 43.74054 132.87930 10396 ft 314 kts 219°
2026-03-29 09:08 43.72326 132.86171 9901 ft 311 kts 219°
2026-03-29 09:08 43.70593 132.84410 9412 ft 307 kts 219°
2026-03-29 09:09 43.68902 132.82695 9150 ft 297 kts 219°
2026-03-29 09:09 43.67290 132.81061 9050 ft 281 kts 219°
2026-03-29 09:09 43.65878 132.79336 9046 ft 264 kts 235°
2026-03-29 09:09 43.64941 132.77173 8881 ft 267 kts 244°
2026-03-29 09:10 43.64054 132.74928 8626 ft 265 kts 242°
2026-03-29 09:10 43.63138 132.72728 8374 ft 263 kts 242°
2026-03-29 09:10 43.62229 132.70517 7936 ft 266 kts 242°
2026-03-29 09:10 43.61328 132.68326 7442 ft 267 kts 241°
2026-03-29 09:11 43.60409 132.66092 6944 ft 269 kts 241°
2026-03-29 09:11 43.59484 132.63846 6374 ft 272 kts 240°
2026-03-29 09:11 43.58541 132.61559 5745 ft 277 kts 240°
2026-03-29 09:11 43.57587 132.59247 5142 ft 280 kts 240°
2026-03-29 09:12 43.56663 132.57005 4993 ft 258 kts 240°
2026-03-29 09:12 43.55819 132.54961 4827 ft 238 kts 240°
2026-03-29 09:12 43.55016 132.53014 4576 ft 226 kts 239°
2026-03-29 09:12 43.54259 132.51183 4531 ft 217 kts 239°
2026-03-29 09:13 43.53519 132.49391 4534 ft 218 kts 240°
2026-03-29 09:13 43.52777 132.47545 4534 ft 218 kts 240°
2026-03-29 09:13 43.52043 132.45705 4349 ft 222 kts 240°
2026-03-29 09:13 43.51301 132.43851 3984 ft 224 kts 240°
2026-03-29 09:14 43.50545 132.41962 3610 ft 225 kts 240°
2026-03-29 09:14 43.49797 132.40094 3399 ft 219 kts 240°
2026-03-29 09:14 43.49090 132.38325 3390 ft 205 kts 240°
2026-03-29 09:14 43.48427 132.36671 3394 ft 189 kts 239°
2026-03-29 09:15 43.47806 132.35121 3365 ft 183 kts 239°
2026-03-29 09:15 43.47184 132.33574 2898 ft 194 kts 239°
2026-03-29 09:15 43.46526 132.31932 2515 ft 196 kts 238°
2026-03-29 09:15 43.45874 132.30312 2212 ft 187 kts 238°
2026-03-29 09:16 43.45266 132.28807 2015 ft 179 kts 238°
2026-03-29 09:16 43.44143 132.26003 1670 ft 162 kts 237°
2026-03-29 09:16 43.43595 132.24652 1383 ft 158 kts 237°
2026-03-29 09:17 43.43064 132.23338 1134 ft 151 kts 237°
2026-03-29 09:17 43.42583 132.22142 959 ft 143 kts 237°
2026-03-29 09:17 43.42096 132.20932 746 ft 143 kts 237°
2026-03-29 09:17 43.41616 132.19740 554 ft 143 kts 237°
2026-03-29 09:18 43.41136 132.18530 372 ft 144 kts 238°
2026-03-29 09:18 43.40661 132.17340 170 ft 143 kts 236°
2026-03-29 09:18 43.40192 132.16190 60 ft 127 kts 237°
2026-03-29 09:18 43.39795 132.15212 54 ft 108 kts 249°
2026-03-29 09:19 43.39457 132.14459 53 ft 82 kts 238°
2026-03-29 09:19 43.39228 132.13841 53 ft 64 kts 244°
2026-03-29 09:19 43.39059 132.13397 53 ft 37 kts 242°
2026-03-29 09:19 43.38977 132.13190 53 ft 21 kts 241°
2026-03-29 09:20 43.38904 132.13112 53 ft 11 kts 170°
2026-03-29 09:20 43.38836 132.13155 53 ft 9 kts 152°
2026-03-29 09:20 43.38784 132.13200 53 ft 8 kts 125°
2026-03-29 09:20 43.38779 132.13289 53 ft 11 kts 68°
2026-03-29 09:21 43.38821 132.13399 53 ft 14 kts 61°
2026-03-29 09:21 43.38876 132.13538 53 ft 18 kts 60°
2026-03-29 09:21 43.38943 132.13702 53 ft 20 kts 60°
2026-03-29 09:21 43.39017 132.13886 53 ft 23 kts 62°
2026-03-29 09:22 43.39098 132.14085 53 ft 22 kts 61°
2026-03-29 09:22 43.39170 132.14264 53 ft 20 kts 61°
2026-03-29 09:22 43.39231 132.14414 53 ft 14 kts 61°
2026-03-29 09:22 43.39278 132.14533 53 ft 13 kts 61°
2026-03-29 09:23 43.39321 132.14639 53 ft 13 kts 61°
2026-03-29 09:23 43.39368 132.14754 53 ft 13 kts 60°
2026-03-29 09:23 43.39415 132.14870 53 ft 14 kts 61°
2026-03-29 09:23 43.39464 132.14992 53 ft 14 kts 60°
2026-03-29 09:24 43.39515 132.15118 53 ft 16 kts 61°
2026-03-29 09:24 43.39575 132.15268 53 ft 19 kts 61°
2026-03-29 09:24 43.39646 132.15443 53 ft 22 kts 60°
2026-03-29 09:24 43.39725 132.15637 53 ft 24 kts 61°
2026-03-29 09:25 43.39804 132.15834 53 ft 22 kts 61°
2026-03-29 09:25 43.39869 132.15996 53 ft 13 kts 60°
2026-03-29 09:25 43.39886 132.16104 53 ft 11 kts 128°
2026-03-29 09:25 43.39820 132.16162 53 ft 11 kts 151°
2026-03-29 09:26 43.39754 132.16222 53 ft 10 kts 122°
2026-03-29 09:26 43.39765 132.16316 53 ft 10 kts 62°
2026-03-29 09:26 43.39798 132.16400 53 ft 9 kts 60°
2026-03-29 09:26 43.39823 132.16481 53 ft 6 kts 95°
2026-03-29 09:27 43.39807 132.16518 53 ft 2 kts 139°
2026-03-29 09:27 43.39790 132.16533 53 ft 3 kts 152°
2026-03-29 09:27 43.39780 132.16540 53 ft 0 kts 150°